Regional Weather Roundup
Issued by NWS Goodland, KS

Home | Current Version | Previous Version | Graphics & Text | Print | Product List | Glossary On
Versions: 1 2 3 4 5 6 7 8 9 10 11 12 13 14 15 16 17 18 19 20 21 22 23 24 25 26 27 28 29 30 31 32 33 34 35 36 37 38 39 40 41 42 43 44 45 46 47 48 49 50
000
ASUS43 KGLD 020559
RWRGLD

GOODLAND FORECAST AREA HOURLY WEATHER ROUNDUP
NATIONAL WEATHER SERVICE GOODLAND KS
1200 AM MDT THU OCT 02 2014

...OFFICIAL OBSERVATIONS...

CITY           SKY/WX    TMP DP  RH WIND       PRES   REMARKS
GOODLAND KS    MOCLDY    49  46  90 N18       29.96F
HILL CITY KS   MOCLDY    59  50  72 NW15G24   29.83R
IMPERIAL NEB   LGT RAIN  50  46  86 N13       29.97R
MCCOOK NEB     MOCLDY    55  50  83 N22G29    29.89R
AKRON CO       CLOUDY    44  44 100 NW14      30.02F
BURLINGTON CO  CLOUDY    48  45  89 N17G31    29.94F
LIMON CO       CLOUDY    43  41  93 NW18      30.03R
$$

...UNOFFICIAL OBSERVATIONS...

CITY           SKY/WX    TMP DP  RH WIND       PRES   REMARKS
COLBY KS       MOCLDY    52  52 100 NW15G23   29.92R
GOVE KS          N/A     55  32  41 MISG        N/A
NORTON KS      PTCLDY    55  46  71 NW24G32   29.79F
SHARON SPRINGS   N/A     52  48  86 N23G35      N/A
TRENTON NEB      N/A     52  32  46 NW18        N/A
KIT CARSON CO    N/A     48  44  87 N18G26      N/A
YUMA CO          N/A     47  44  90 N8          N/A
$$



USA.gov is the U.S. government's official web portal to all federal, state and local government web resources and services.